Location: Asheville, NC
(35.6000°N, 82.5500°W)
Time: 19:13:10
(UTC-04:00)

Vanguard 1 - Pass Details

Date: 16 December 2017
Orbit: 650 x 3833 km, 34.2° (Epoch: 21 April)

Event Time Altitude Azimuth Distance (km) Brightness Sun altitude
Rises 13:50:20 0° 283° (WNW) 7,045 14.5 27.8°
Reaches altitude 10° 13:55:46 10° 281° (W) 5,563 14.1 27.3°
Maximum altitude 14:10:11 60° 207° (SSW) 1,925 12.7 26.1°
Drops below altitude 10° 14:17:50 10° 128° (SE) 3,085 12.8 25.4°
Sets 14:20:00 0° 124° (SE) 3,793 13.2 25.2°
